Retour au catalogue

STARLINK-5856

ActifCommunicationsVLEO
NORAD 55914·PAYLOAD·🇺🇸 United States

Lancé Mar 17, 2023 depuis Vandenberg Space Force Base

Loading…

Prochains Passages (prochaines 24 heures)

TLE

FraisSource: CelesTrak SupGP

Époque: Sep 14, 2026, 21:55 UTC

1 55914C 23037A   26257.91368056 -.00043252  00000+0 -36239-2 0  2578
2 55914  70.0025 187.5060 0003170 267.2449 226.4883 14.98360925    13

Suivez STARLINK-5856 en temps réel avec AllMySat

Download on the App Store